Gainesville, GA

5:07 AM EDT on April 24, 2018 (GMT -0400)
Gilmer Memorial

Weather History for KGVL - December, 2014

Change the Weather History Date:

Wednesday, December 10, 2014

  Actual Average Record
Temperature  
Mean Temperature 41 °F 45 °F  
Max Temperature 49 °F 53 °F 74 °F (1943)
Min Temperature 33 °F 36 °F 11 °F (1937)
Degree Days  
Heating Degree Days 24 20  
Month to date heating degree days 141 191  
Since 1 July heating degree days 784 726  
Moisture  
Dew Point 28 °F    
Average Humidity 64    
Maximum Humidity 82    
Minimum Humidity 46    
Precipitation  
Precipitation 0.00 in 0.18 in 1.95 in (2002)
Month to date precipitation 0.79 1.71  
Year to date precipitation 42.46 51.19  
Snow  
Snow 0.00 in - - ()
Month to date snowfall 0.0  
Since 1 July snowfall 0.0  
Snow Depth -    
Sea Level Pressure  
Sea Level Pressure 30.10 in    
Wind  
Wind Speed 10 mph (NW)    
Max Wind Speed 20 mph    
Max Gust Speed 25 mph    
Visibility 10 miles    
Events      
T = Trace of Precipitation, MM = Missing Value Source: NWS Daily Summary

Daily Weather History Graph

Daily Weather History Graph

Search for Another Location

Airport or City:

Astronomy

Dec. 10, 2014 Rise Set
Actual Time 7:30 AM EST 5:25 PM EST
Civil Twilight 7:02 AM EST 5:53 PM EST
Nautical Twilight 6:31 AM EST 6:24 PM EST
Astronomical Twilight 6:01 AM EST 6:55 PM EST
Moon 9:32 PM EST (12/10) 10:26 AM EST (12/10)
Length of Visible Light 10h 50m
Length of Day
9h 55m
Waning Gibbous, 83% of the Moon is Illuminated
Dec 10
Waning Gibbous
Dec 14
Last Quarter
Dec 21
New
Dec 28
First Quarter
Jan 4
Full

Hourly Weather History & Observations

Time (EST) Temp. Windchill Dew Point Humidity Pressure Visibility Wind Dir Wind Speed Gust Speed Precip Events Conditions
12:53 AM 37.0 °F 30.4 °F 30.0 °F 76% 30.10 in 10.0 mi NW 9.2 mph - N/A   Clear
1:53 AM 37.0 °F 31.6 °F 30.0 °F 76% 30.10 in 10.0 mi NW 6.9 mph - N/A   Clear
2:53 AM 37.0 °F 31.0 °F 28.9 °F 73% 30.12 in 10.0 mi NW 8.1 mph - N/A   Clear
3:53 AM 36.0 °F 30.3 °F 28.9 °F 76% 30.11 in 10.0 mi WNW 6.9 mph - N/A   Clear
4:53 AM 35.1 °F 29.3 °F 28.9 °F 78% 30.11 in 10.0 mi WNW 6.9 mph - N/A   Clear
5:53 AM 34.0 °F 29.8 °F 28.0 °F 79% 30.12 in 10.0 mi West 4.6 mph - N/A   Clear
6:53 AM 35.1 °F 29.3 °F 28.0 °F 76% 30.13 in 10.0 mi NW 6.9 mph - N/A   Clear
7:53 AM 35.1 °F 29.3 °F 28.0 °F 76% 30.12 in 10.0 mi NW 6.9 mph - N/A   Clear
8:53 AM 39.0 °F 32.8 °F 28.9 °F 67% 30.13 in 10.0 mi NW 9.2 mph - N/A   Clear
9:53 AM 42.1 °F 35.7 °F 28.9 °F 60% 30.15 in 10.0 mi WNW 11.5 mph - N/A   Clear
10:53 AM 44.1 °F 37.4 °F 30.0 °F 58% 30.14 in 10.0 mi WNW 13.8 mph - N/A   Clear
11:53 AM 46.0 °F 41.0 °F 28.9 °F 51% 30.12 in 10.0 mi WNW 10.4 mph - N/A   Clear
12:53 PM 48.0 °F - 28.0 °F 46% 30.10 in 10.0 mi NW 10.4 mph - N/A   Clear
1:53 PM 48.9 °F - 28.0 °F 44% 30.09 in 10.0 mi NW 11.5 mph 17.3 mph N/A   Clear
2:53 PM 48.9 °F - 28.0 °F 44% 30.07 in 10.0 mi NW 12.7 mph - N/A   Clear
3:53 PM 46.9 °F - 28.0 °F 48% 30.07 in 10.0 mi NW 16.1 mph - N/A   Clear
4:53 PM 44.1 °F 38.1 °F 27.0 °F 51% 30.09 in 10.0 mi NW 11.5 mph - N/A   Clear
5:53 PM 41.0 °F 33.5 °F 27.0 °F 57% 30.08 in 10.0 mi NW 13.8 mph - N/A   Clear
6:53 PM 39.0 °F 31.0 °F 27.0 °F 62% 30.08 in 10.0 mi WNW 13.8 mph - N/A   Clear
7:53 PM 37.0 °F 31.0 °F 27.0 °F 67% 30.08 in 10.0 mi NW 8.1 mph - N/A   Clear
8:53 PM 36.0 °F 28.0 °F 27.0 °F 70% 30.08 in 10.0 mi WNW 11.5 mph - N/A   Clear
9:53 PM 35.1 °F 27.9 °F 27.0 °F 72% 30.08 in 10.0 mi WNW 9.2 mph - N/A   Clear
10:53 PM 33.1 °F 25.5 °F 26.1 °F 75% 30.07 in 10.0 mi WNW 9.2 mph - N/A   Clear
11:53 PM 33.1 °F 26.9 °F 26.1 °F 75% 30.06 in 10.0 mi WNW 6.9 mph - N/A   Clear